Current Version              Previous Version:    01  02  03  04  05  06  07  08  09  10  11  12  13  14  15  16  17  18  19  20  21  22  23  24  25  26  27  28  29  30  
   31  32  33  34  35  36  37  38  39  40  41  42  43  44  45  46  47  48  49  50  51  52  53  54  55  56  57  58  59  60  

[Printable]
100
ASUS44 KEWX 242102
RWRTX
SOUTH TEXAS REGIONAL WEATHER ROUNDUP
NATIONAL WEATHER SERVICE AUSTIN/SAN ANTONIO TX
400 PM CDT THU APR 24 2014

NOTE: "FAIR" INDICATED FEW OR NO CLOUDS BELOW 12,000 FEET WITH NO
SIGNIFICANT WEATHER AND/OR OBSTRUCTIONS TO VISIBILITY.

* - THESE STATIONS ARE NOT NWS OR FAA STATIONS...AND ARE NOT SUBJECT
    TO NWS AND FAA QUALITY CONTROL.

TXZ171-172-183>190-242200-
TEXAS HILL COUNTRY AND EDWARDS PLATEAU

CITY           SKY/WX    TMP DP  RH WIND       PRES   REMARKS
JUNCTION       MOSUNNY   90  20   7 N10G24    29.87F
*LLANO         SUNNY     90  36  14 N18G25    29.88R
BURNET         SUNNY     92  28  10 N13       29.85S
*HORSESHOE BAY SUNNY     94  42  16 N17G24    29.81F HX  90
*KERRVILLE     SUNNY     94  22   7 N9G25     29.84F
*FREDERICKSBRG SUNNY     91  29  11 N12G20    29.85F
*ROCKSPRINGS   SUNNY     90  19   7 NW15G21   29.92F
*BOERNE STAGE  SUNNY     90  50  25 N7G18     29.84F
*CASTROVILLE   SUNNY     87  60  40 SE8       29.83F
HONDO          SUNNY     93  63  36 S9        29.82F HX  94
*UVALDE        SUNNY     93  60  32 SE8       29.81F HX  93
DEL RIO        SUNNY     97  21   6 NW14G23   29.81F HX  90
LAUGHLIN AFB   SUNNY     96  23   7 NW18      29.82F HX  90
CARRIZO SPRGS  SUNNY     90  61  37 CALM      29.80F
$$

TXZ173-191>194-202-209-217>225-228-242200-
CENTRAL AND SOUTH CENTRAL TEXAS

CITY           SKY/WX    TMP DP  RH WIND       PRES   REMARKS
GEORGETOWN     MOSUNNY   91  61  35 W3        29.79F HX  91
AUSTIN/BERGSTM MOSUNNY   84  66  54 VRB7      29.81F
AUSTIN/MABRY   SUNNY     87  66  49 VRB3      29.82F
*AUSTIN/EXEC   SUNNY     84  64  51 S5        29.82F
*LAGO VISTA    MOSUNNY   88  54  31 N9        29.84F
SAN MARCOS     SUNNY     84  64  51 SE8       29.83F
NEW BRAUNFELS  SUNNY     85  64  49 SE8       29.81F
RANDOLPH AFB   SUNNY     85  63  46 VRB6      29.82F
PT SAN ANTONIO NOT AVBL
SAN ANTONIO    MOSUNNY   88  64  44 E6        29.81F
STINSON FIELD  SUNNY     86  63  45 VRB7      29.80F
*PLEASANTON    SUNNY     85  64  49 E7        29.83F
*LA GRANGE     MOSUNNY   83  69  62 W5        29.83S
*GIDDINGS      MOSUNNY   81  65  58 CALM      29.88F
*GONZALES      MOSUNNY   83  69  61 NW3       29.82F
$$

TXZ163>164-176>182-195>201-210>213-226-227-235-242200-
SOUTHEAST TEXAS

CITY           SKY/WX    TMP DP  RH WIND       PRES   REMARKS
COLLEGE STN    PTSUNNY   82  67  60 SW8       29.84F
*BRYAN         PTSUNNY   80  67  65 SW5       29.84F
*CALDWELL      MOSUNNY   82  66  57 W7        29.87F
*CROCKETT      MOSUNNY   82  72  69 SW8       29.88F
*BRENHAM       PTSUNNY   80  66  63 SW6       29.86S
HUNTSVILLE     CLOUDY    77  66  68 W5        29.86S
CONROE         CLOUDY    80  66  62 S7        29.84F
HOUSTON BUSH   CLOUDY    83  64  52 S8        29.83F
HOUSTON HOBBY  PTSUNNY   81  65  58 S10       29.85F
*HOUSTON SW AP PTSUNNY   83  65  54 SW7       29.86S
PEARLAND       PTSUNNY   82  64  54 S13       29.87F
HOUSTON HOOKS  CLOUDY    81  66  60 S8G17     29.84F
ELLINGTON FLD  PTSUNNY   82  66  57 S9        29.87S
SUGAR LAND     PTSUNNY   83  66  56 SW8       29.84F
*HOUSTON EXEC  PTSUNNY   84  66  54 S16       29.84F
*CLEVELAND MUN CLOUDY    81  69  67 S8        29.85F
*WHARTON       PTSUNNY   82  66  59 S13       29.86S
$$

TXZ214>216-236>238-242200-
THE UPPER TEXAS COAST

CITY           SKY/WX    TMP DP  RH WIND       PRES   REMARKS
*ORANGE        PTSUNNY   77  67  71 S14       29.90F
PORT ARTHUR    CLOUDY    78  66  66 S10       29.88S
GALVESTON      CLOUDY    75  70  84 S12       29.89R
ANGLETON       CLOUDY    78  67  68 S14       29.86F
*BAY CITY      CLOUDY    81  70  68 S14       29.86F
PALACIOS       PTSUNNY   78  70  76 S13       29.85F
$$

TXZ229>234-239>247-242200-
TEXAS COASTAL BEND AND RIO GRANDE PLAINS

CITY           SKY/WX    TMP DP  RH WIND       PRES   REMARKS
VICTORIA       PTSUNNY   82  68  62 S10       29.83F
*BEEVILLE      CLOUDY    82  68  62 E8        29.82S
ROCKPORT       CLOUDY    79  70  74 SE14      29.81F
*PORT ARANSAS  PTSUNNY   76  70  83 SE10G18   29.83S
*PORT LAVACA   CLOUDY    79  67  68 SE14      29.83F
*INGLESIDE     CLOUDY    82  70  66 SE17G23   29.82F
CORPUS CHRISTI CLOUDY    81  69  67 SE15      29.81S
CORPUS NAS     CLOUDY    79  71  76 SE18      29.81F
*ROBSTOWN      CLOUDY   N/A N/A N/A SE14      29.81S
ALICE          CLOUDY    86  68  54 E8        29.79S
KINGSVILLE NAS CLOUDY    83  70  64 SE14      29.80S
COTULLA        SUNNY     90  60  36 N9        29.81F
*FAITH RANCH   SUNNY     93  57  29 N10G21    29.82F HX  92
LAREDO         SUNNY     91  63  39 N12       29.83S HX  92
$$

TXZ248>255-242200-
DEEP SOUTH TEXAS

CITY           SKY/WX    TMP DP  RH WIND       PRES   REMARKS
BROWNSVILLE    CLOUDY    84  70  62 SE20      29.77F
PORT ISABEL    NOT AVBL
*SOUTH PADRE   MOSUNNY   81  72  74 CALM      29.79F
HARLINGEN      PTSUNNY   88  67  49 S15G21    29.75F HX  91
*HEBBRONVILLE  PTSUNNY   87  64  47 NE9       29.81S
MCALLEN        PTSUNNY   93  68  43 CALM      29.74F HX  97
*WESLACO       PTSUNNY   89  68  50 SE12G18   29.75F HX  92
FALFURRIAS     PTSUNNY   91  64  40 NW5       29.77F HX  93
EDINBURG       MOSUNNY   92  66  42 CALM      29.75F HX  95
*ZAPATA        MOSUNNY   91  62  37 N13G20    29.78F HX  92
$$

TXZ213>215-236>238-242>244-246-247-251-254-255-242200-
CMAN STATIONS

STATION/POSITION TIME  TEMP    WIND        PRES    WAVE
                       AIR SEA DIR/SP/G            HT/PER
                 (UTC) (F)     (DEG/KT/KT) (MB)    (FT/S)
SABINE PASS      2000   74 71  190/ 15/ 20 1011.5
SEA RIM ST PARK  2000   74     170/  8/ 11 1012.7
NORTH JETTY/GLS  2000   72 73  180/  5/  7   N/A
EAGLE POINT      2000   75 70  200/ 16/ 17 1011.4
MORGANS POINT    2000   77 70  150/  6/ 12   N/A
PORT O`CONNOR    2000          140/ 10/ 12   N/A
PORT ARANSAS     2000   72 75  110/ 13/ 14 1010.4
MALAQUITE BEACH  2000   72 73  100/ 11/ 12 1009.2
BAFFIN BAY       2000   76 80  130/ 14/ 20 1009.3
$$

GMZ080-GMZ150>470-242200-
OFFSHORE BUOY REPORTS

STATION/POSITION TIME  TEMP    WIND        PRES    WAVE
                       AIR SEA DIR/SP/G            HT/PER
                 (UTC) (F)     (DEG/KT/KT) (MB)    (FT/S)
20 E GALVESTON   2100   71 70  180/  4/  6 1011.9    3/ 6
35 NE PT MANSFLD 2100   73 72  140/  8/ 10 1009.8    4/ 7
$$